Location: Ciochowice
(50.4289°N, 18.5217°E)
Time: 06:43:09
(UTC+01:00)

ISS - Pass Details

Date: 25 January 2019
Orbit: 403 x 411 km, 51.6° (Epoch: 23 February)

Event Time Altitude Azimuth Distance (km) Brightness Sun altitude
Rises 18:25:54 0° 233° (SW) 2,328 1.1 -18.8°
Reaches altitude 10° 18:28:02 10° 226° (SW) 1,472 -0.2 -19.1°
Enters shadow 18:30:56 43° 168° (SSE) 585 -3.2 -19.6°
